Flag for United Kingdom Weather past 2 weeks in Nottingham, England, United Kingdom

Now
75 °F

Scattered clouds.


Feels Like: 78 °F
Forecast: 53 / 71 °F
Wind: 18 mph from Southwest

Location: East Midlands

Current Time: Jul 4, 2015 at 5:25:25 PM

Latest Report: Jul 4, 2015 at 4:20 PM


Visibility: N/A

Pressure: 30.07 "Hg

Humidity: 50%

Dew point: 55 °F

Location of NottinghamLocation

Historic Weather in Nottingham — Graph

°F

Nottingham temperature yesterday

Maximum temperature yesterday: 77 °F (at 3:20 PM)
Minimum temperature yesterday: 52 °F (at 3:50 AM)
Average temperature yesterday: 64 °F

Past Weeks' High & Low Weather Summary

 TemperatureHumidityPressure
High93 °F (Jul 1, 2:20 PM)100% (Jun 20, 9:20 AM)30.30 "Hg (Jun 20, 9:20 AM)
Low48 °F (Jun 23, 4:50 AM)33% (Jun 30, 3:50 PM)29.80 "Hg (Jun 22, 7:50 AM)
Average63 °F71%30.05 "Hg
* Reported Jun 19 4:20 PM — Jul 4 4:20 PM, Nottingham, Weather by CustomWeather, © 2015

Note: Actual official high and low records may vary slightly from our data, if they occured in-between our weather recording intervals... More about our weather records

Advertising

Nottingham weather history for previous 24 hours

 ConditionsComfort  
Time TempWeatherWind HumidityBarometerVisibility
4:20 PM
Sat, Jul 4
75 °FScattered clouds.18 mph50%30.07 "HgN/A
3:50 PM75 °FPartly sunny.17 mph54%30.04 "HgN/A
3:20 PM75 °FPartly sunny.17 mph54%30.04 "HgN/A
2:20 PM75 °FPartly sunny.15 mph50%30.04 "HgN/A
1:50 PM77 °FPartly sunny.18 mph51%30.01 "HgN/A
1:20 PM77 °FPartly sunny.20 mph54%30.01 "HgN/A
12:50 PM73 °FPartly sunny.15 mph65%30.01 "HgN/A
12:20 PM73 °FPartly sunny.15 mph65%30.01 "HgN/A
11:50 AM72 °FPartly sunny.15 mph69%30.01 "HgN/A
11:20 AM73 °FScattered clouds.16 mph65%30.01 "HgN/A
10:50 AM72 °FScattered clouds.14 mph73%29.98 "HgN/A
10:20 AM72 °FBroken clouds.17 mph73%29.98 "HgN/A
9:50 AM70 °FBroken clouds.15 mph83%29.98 "Hg5 mi
9:20 AM68 °FFog.12 mph88%29.98 "Hg3 mi
8:50 AM64 °FFog.8 mph100%29.98 "Hg2 mi
8:20 AM63 °FFog.6 mph100%29.98 "Hg1 mi
7:50 AM61 °FLight rain. Fog.3 mph100%29.98 "Hg1 mi
7:20 AM61 °FLight rain. Fog.5 mph94%29.98 "Hg0 mi
6:50 AM59 °FLight rain. Fog.7 mph100%29.98 "Hg1 mi
6:20 AM59 °FLight rain. Fog.9 mph100%29.95 "Hg1 mi
5:50 AM59 °FFog.7 mph100%29.98 "Hg1 mi
5:20 AM59 °FFog.9 mph100%29.98 "Hg1 mi
4:50 AM59 °FFog.12 mph100%29.98 "Hg1 mi
4:20 AM59 °FLight rain. Passing clouds.12 mph100%29.98 "HgN/A
3:50 AM59 °FLight rain. Passing clouds.10 mph100%29.98 "HgN/A
3:20 AM57 °FThunderstorms. Passing clouds.10 mph100%30.01 "Hg5 mi
2:50 AM57 °FThunderstorms. Passing clouds.6 mph100%30.07 "HgN/A
2:20 AM59 °FThunderstorms. Passing clouds.13 mph94%30.01 "HgN/A
1:50 AM59 °FPassing clouds.13 mph94%30.04 "HgN/A
1:20 AM57 °FPassing clouds.13 mph94%30.04 "HgN/A
12:50 AM57 °FPassing clouds.13 mph94%30.07 "HgN/A
12:20 AM59 °FClear.12 mph88%30.07 "Hg10 mi
11:50 PM
Fri, Jul 3
59 °FClear.12 mph88%30.09 "Hg10 mi
11:20 PM59 °FClear.13 mph88%30.12 "Hg10 mi
10:50 PM59 °FClear.14 mph82%30.12 "Hg10 mi
10:20 PM61 °FSunny.12 mph77%30.15 "Hg10 mi
9:50 PM61 °FSunny.13 mph72%30.15 "Hg10 mi
9:20 PM63 °FSunny.14 mph68%30.15 "Hg10 mi
8:50 PM63 °FSunny.15 mph64%30.15 "Hg10 mi
8:20 PM64 °FSunny.12 mph60%30.15 "Hg10 mi
7:50 PM66 °FSunny.15 mph56%30.18 "Hg10 mi
7:20 PM68 °FSunny.14 mph53%30.15 "Hg10 mi
6:50 PM70 °FSunny.13 mph50%30.18 "Hg10 mi
6:20 PM70 °FSunny.16 mph50%30.18 "Hg10 mi
5:50 PM72 °FSunny.14 mph50%30.18 "Hg10 mi
5:20 PM73 °FSunny.14 mph44%30.18 "Hg10 mi
Weather by CustomWeather, © 2015

See weather overviewHow to use our weather pages